Time,TemperatureF,DewpointF,PressureIn,WindDirection,WindDirectionDegrees,WindSpeedMPH,WindSpeedGustMPH,Humidity,HourlyPrecipIn,Conditions,Clouds,dailyrainin,SolarRadiationWatts/m^2,SoftwareType,DateUTC
2013-02-23 00:02:00,50.0,42.0,-100.00,WNW,301,5.0,9.0,73,0.00,,,0.22,35.000000,,2013-02-23 00:02:00,
2013-02-23 00:11:00,49.0,41.0,-100.00,NW,305,4.0,8.0,75,0.00,,,0.22,0.000000,,2013-02-23 00:11:00,
2013-02-23 00:32:00,49.0,41.0,-100.00,NW,305,4.0,8.0,75,0.00,,,0.22,0.000000,,2013-02-23 00:32:00,
2013-02-23 00:42:00,49.0,41.0,-100.00,NW,305,4.0,8.0,75,0.00,,,0.22,0.000000,,2013-02-23 00:42:00,
2013-02-23 00:52:00,49.0,41.0,-100.00,NW,305,4.0,8.0,75,0.00,,,0.22,0.000000,,2013-02-23 00:52:00,
2013-02-23 01:01:00,49.0,41.0,-100.00,NW,305,4.0,8.0,75,0.00,,,0.22,0.000000,,2013-02-23 01:01:00,
2013-02-23 01:11:00,49.0,42.0,-100.00,West,263,2.0,7.0,76,0.00,,,0.22,0.000000,,2013-02-23 01:11:00,
2013-02-23 01:32:00,49.0,42.0,-100.00,West,263,2.0,7.0,76,0.00,,,0.22,0.000000,,2013-02-23 01:32:00,
2013-02-23 01:42:00,49.0,42.0,-100.00,West,263,2.0,7.0,76,0.00,,,0.22,0.000000,,2013-02-23 01:42:00,
2013-02-23 01:52:00,49.0,42.0,-100.00,West,263,2.0,7.0,76,0.00,,,0.22,0.000000,,2013-02-23 01:52:00,
2013-02-23 02:01:00,49.0,42.0,-100.00,West,263,2.0,7.0,76,0.00,,,0.22,0.000000,,2013-02-23 02:01:00,
2013-02-23 02:11:00,48.0,41.0,-100.00,NE,41,2.0,5.0,78,0.00,,,0.22,0.000000,,2013-02-23 02:11:00,
2013-02-23 02:32:00,48.0,41.0,-100.00,NE,41,2.0,5.0,78,0.00,,,0.22,0.000000,,2013-02-23 02:32:00,
2013-02-23 02:42:00,48.0,41.0,-100.00,NE,41,2.0,5.0,78,0.00,,,0.22,0.000000,,2013-02-23 02:42:00,
2013-02-23 02:52:00,48.0,41.0,-100.00,NE,41,2.0,5.0,78,0.00,,,0.22,0.000000,,2013-02-23 02:52:00,
2013-02-23 03:02:00,48.0,41.0,-100.00,NE,41,2.0,5.0,78,0.00,,,0.22,0.000000,,2013-02-23 03:02:00,
2013-02-23 03:11:00,46.0,40.0,-100.00,NW,308,1.0,4.0,80,0.00,,,0.20,0.000000,,2013-02-23 03:11:00,
2013-02-23 03:32:00,46.0,40.0,-100.00,NW,308,1.0,4.0,80,0.00,,,0.20,0.000000,,2013-02-23 03:32:00,
2013-02-23 03:42:00,46.0,40.0,-100.00,NW,308,1.0,4.0,80,0.00,,,0.20,0.000000,,2013-02-23 03:42:00,
2013-02-23 03:52:00,46.0,40.0,-100.00,NW,308,1.0,4.0,80,0.00,,,0.20,0.000000,,2013-02-23 03:52:00,
2013-02-23 04:01:00,46.0,40.0,-100.00,NW,308,1.0,4.0,80,0.00,,,0.20,0.000000,,2013-02-23 04:01:00,
2013-02-23 04:11:00,45.0,40.0,-100.00,North,354,1.0,4.0,84,0.00,,,0.17,0.000000,,2013-02-23 04:11:00,
2013-02-23 04:32:00,45.0,40.0,-100.00,North,354,1.0,4.0,84,0.00,,,0.17,0.000000,,2013-02-23 04:32:00,
2013-02-23 04:42:00,45.0,40.0,-100.00,North,354,1.0,4.0,84,0.00,,,0.17,0.000000,,2013-02-23 04:42:00,
2013-02-23 04:52:00,45.0,40.0,-100.00,North,354,1.0,4.0,84,0.00,,,0.17,0.000000,,2013-02-23 04:52:00,
2013-02-23 05:03:00,45.0,40.0,-100.00,North,354,1.0,4.0,84,0.00,,,0.17,0.000000,,2013-02-23 05:03:00,
2013-02-23 05:11:00,46.0,42.0,-100.00,North,355,1.0,6.0,85,0.00,,,0.09,0.000000,,2013-02-23 05:11:00,
2013-02-23 05:42:00,46.0,42.0,-100.00,North,355,1.0,6.0,85,0.00,,,0.09,0.000000,,2013-02-23 05:42:00,
2013-02-23 05:52:00,46.0,42.0,-100.00,North,355,1.0,6.0,85,0.00,,,0.09,0.000000,,2013-02-23 05:52:00,
2013-02-23 06:02:00,46.0,42.0,-100.00,North,355,1.0,6.0,85,0.00,,,0.09,0.000000,,2013-02-23 06:02:00,
2013-02-23 06:11:00,46.0,42.0,-100.00,NNW,329,2.0,4.0,86,0.00,,,0.07,0.000000,,2013-02-23 06:11:00,
2013-02-23 06:32:00,46.0,42.0,-100.00,NNW,329,2.0,4.0,86,0.00,,,0.07,0.000000,,2013-02-23 06:32:00,
2013-02-23 06:42:00,46.0,42.0,-100.00,NNW,329,2.0,4.0,86,0.00,,,0.07,0.000000,,2013-02-23 06:42:00,
2013-02-23 06:52:00,46.0,42.0,-100.00,NNW,329,2.0,4.0,86,0.00,,,0.07,0.000000,,2013-02-23 06:52:00,
2013-02-23 07:01:00,46.0,42.0,-100.00,NNW,329,2.0,4.0,86,0.00,,,0.07,0.000000,,2013-02-23 07:01:00,
2013-02-23 07:11:00,45.0,42.0,-100.00,WNW,297,2.0,6.0,88,0.00,,,0.02,0.000000,,2013-02-23 07:11:00,
2013-02-23 07:32:00,45.0,42.0,-100.00,WNW,297,2.0,6.0,88,0.00,,,0.02,0.000000,,2013-02-23 07:32:00,
2013-02-23 07:42:00,45.0,42.0,-100.00,WNW,297,2.0,6.0,88,0.00,,,0.02,0.000000,,2013-02-23 07:42:00,
2013-02-23 07:52:00,45.0,42.0,-100.00,WNW,297,2.0,6.0,88,0.00,,,0.02,0.000000,,2013-02-23 07:52:00,
2013-02-23 08:01:00,45.0,42.0,-100.00,WNW,297,2.0,6.0,88,0.00,,,0.02,0.000000,,2013-02-23 08:01:00,
2013-02-23 08:11:00,45.0,44.0,-100.00,NE,44,3.0,7.0,97,0.00,,,0.02,0.000000,,2013-02-23 08:11:00,
2013-02-23 08:32:00,45.0,44.0,-100.00,NE,44,3.0,7.0,97,0.00,,,0.02,0.000000,,2013-02-23 08:32:00,
2013-02-23 08:42:00,45.0,44.0,-100.00,NE,44,3.0,7.0,97,0.00,,,0.02,0.000000,,2013-02-23 08:42:00,
2013-02-23 08:53:00,45.0,44.0,-100.00,NE,44,3.0,7.0,97,0.00,,,0.02,0.000000,,2013-02-23 08:53:00,
2013-02-23 09:02:00,45.0,44.0,-100.00,NE,44,3.0,7.0,97,0.00,,,0.02,0.000000,,2013-02-23 09:02:00,
2013-02-23 09:11:00,45.0,44.0,-100.00,NW,309,2.0,8.0,97,0.00,,,0.01,0.000000,,2013-02-23 09:11:00,
2013-02-23 09:32:00,45.0,44.0,-100.00,NW,309,2.0,8.0,97,0.00,,,0.01,0.000000,,2013-02-23 09:32:00,
2013-02-23 09:42:00,45.0,44.0,-100.00,NW,309,2.0,8.0,97,0.00,,,0.01,0.000000,,2013-02-23 09:42:00,
2013-02-23 09:52:00,45.0,44.0,-100.00,NW,309,2.0,8.0,97,0.00,,,0.01,0.000000,,2013-02-23 09:52:00,
2013-02-23 10:01:00,45.0,44.0,-100.00,NW,309,2.0,8.0,97,0.00,,,0.01,0.000000,,2013-02-23 10:01:00,
2013-02-23 10:11:00,45.0,44.0,-100.00,East,88,1.0,5.0,97,0.00,,,0.00,0.000000,,2013-02-23 10:11:00,
2013-02-23 10:32:00,45.0,44.0,-100.00,East,88,1.0,5.0,97,0.00,,,0.00,0.000000,,2013-02-23 10:32:00,
2013-02-23 10:42:00,45.0,44.0,-100.00,East,88,1.0,5.0,97,0.00,,,0.00,0.000000,,2013-02-23 10:42:00,
2013-02-23 10:52:00,45.0,44.0,-100.00,East,88,1.0,5.0,97,0.00,,,0.00,0.000000,,2013-02-23 10:52:00,
2013-02-23 11:02:00,45.0,44.0,-100.00,East,88,1.0,5.0,97,0.00,,,0.00,0.000000,,2013-02-23 11:02:00,
2013-02-23 11:11:00,44.0,43.0,-100.00,East,84,1.0,4.0,98,0.00,,,0.00,0.000000,,2013-02-23 11:11:00,
2013-02-23 11:42:00,44.0,43.0,-100.00,East,84,1.0,4.0,98,0.00,,,0.00,0.000000,,2013-02-23 11:42:00,
2013-02-23 11:53:00,44.0,43.0,-100.00,East,84,1.0,4.0,98,0.00,,,0.00,0.000000,,2013-02-23 11:53:00,
2013-02-23 12:02:00,44.0,43.0,-100.00,East,84,1.0,4.0,98,0.00,,,0.00,0.000000,,2013-02-23 12:02:00,
2013-02-23 12:11:00,44.0,43.0,-100.00,ENE,69,2.0,5.0,98,0.00,,,0.00,0.000000,,2013-02-23 12:11:00,
2013-02-23 12:32:00,44.0,43.0,-100.00,ENE,69,2.0,5.0,98,0.00,,,0.00,0.000000,,2013-02-23 12:32:00,
2013-02-23 12:42:00,44.0,43.0,-100.00,ENE,69,2.0,5.0,98,0.00,,,0.00,0.000000,,2013-02-23 12:42:00,
2013-02-23 12:53:00,44.0,43.0,-100.00,ENE,69,2.0,5.0,98,0.00,,,0.00,0.000000,,2013-02-23 12:53:00,
2013-02-23 13:02:00,44.0,43.0,-100.00,ENE,69,2.0,5.0,98,0.00,,,0.00,0.000000,,2013-02-23 13:02:00,
2013-02-23 13:11:00,45.0,44.0,-100.00,SW,227,1.0,4.0,98,0.00,,,0.00,22.000000,,2013-02-23 13:11:00,
2013-02-23 13:32:00,45.0,44.0,-100.00,SW,227,1.0,4.0,98,0.00,,,0.00,22.000000,,2013-02-23 13:32:00,
2013-02-23 13:42:00,45.0,44.0,-100.00,SW,227,1.0,4.0,98,0.00,,,0.00,22.000000,,2013-02-23 13:42:00,
2013-02-23 13:52:00,45.0,44.0,-100.00,SW,227,1.0,4.0,98,0.00,,,0.00,22.000000,,2013-02-23 13:52:00,
2013-02-23 14:02:00,45.0,44.0,-100.00,SW,227,1.0,4.0,98,0.00,,,0.00,22.000000,,2013-02-23 14:02:00,
2013-02-23 14:11:00,46.0,45.0,-100.00,ENE,64,3.0,6.0,95,0.00,,,0.00,84.000000,,2013-02-23 14:11:00,
2013-02-23 14:33:00,46.0,45.0,-100.00,ENE,64,3.0,6.0,95,0.00,,,0.00,84.000000,,2013-02-23 14:33:00,
2013-02-23 14:42:00,46.0,45.0,-100.00,ENE,64,3.0,6.0,95,0.00,,,0.00,84.000000,,2013-02-23 14:42:00,
2013-02-23 14:52:00,46.0,45.0,-100.00,ENE,64,3.0,6.0,95,0.00,,,0.00,84.000000,,2013-02-23 14:52:00,
2013-02-23 15:02:00,46.0,45.0,-100.00,ENE,64,3.0,6.0,95,0.00,,,0.00,84.000000,,2013-02-23 15:02:00,
2013-02-23 15:11:00,46.0,44.0,-100.00,ENE,78,3.0,7.0,91,0.00,,,0.00,98.000000,,2013-02-23 15:11:00,
2013-02-23 15:32:00,46.0,44.0,-100.00,ENE,78,3.0,7.0,91,0.00,,,0.00,98.000000,,2013-02-23 15:32:00,
2013-02-23 15:42:00,46.0,44.0,-100.00,ENE,78,3.0,7.0,91,0.00,,,0.00,98.000000,,2013-02-23 15:42:00,
2013-02-23 15:52:00,46.0,44.0,-100.00,ENE,78,3.0,7.0,91,0.00,,,0.00,98.000000,,2013-02-23 15:52:00,
2013-02-23 16:01:00,46.0,44.0,-100.00,ENE,78,3.0,7.0,91,0.00,,,0.00,98.000000,,2013-02-23 16:01:00,
2013-02-23 16:11:00,52.0,44.0,-100.00,NNE,28,3.0,7.0,74,0.00,,,0.00,504.000000,,2013-02-23 16:11:00,
2013-02-23 16:32:00,52.0,44.0,-100.00,NNE,28,3.0,7.0,74,0.00,,,0.00,504.000000,,2013-02-23 16:32:00,
2013-02-23 16:42:00,52.0,44.0,-100.00,NNE,28,3.0,7.0,74,0.00,,,0.00,504.000000,,2013-02-23 16:42:00,
2013-02-23 16:52:00,52.0,44.0,-100.00,NNE,28,3.0,7.0,74,0.00,,,0.00,504.000000,,2013-02-23 16:52:00,
2013-02-23 17:01:00,52.0,44.0,-100.00,NNE,28,3.0,7.0,74,0.00,,,0.00,504.000000,,2013-02-23 17:01:00,
2013-02-23 17:11:00,57.0,45.0,-100.00,NE,46,2.0,7.0,63,0.00,,,0.00,734.000000,,2013-02-23 17:11:00,
2013-02-23 17:32:00,57.0,45.0,-100.00,NE,46,2.0,7.0,63,0.00,,,0.00,734.000000,,2013-02-23 17:32:00,
2013-02-23 17:42:00,57.0,45.0,-100.00,NE,46,2.0,7.0,63,0.00,,,0.00,734.000000,,2013-02-23 17:42:00,
2013-02-23 17:52:00,57.0,45.0,-100.00,NE,46,2.0,7.0,63,0.00,,,0.00,734.000000,,2013-02-23 17:52:00,
2013-02-23 18:02:00,57.0,45.0,-100.00,NE,46,2.0,7.0,63,0.00,,,0.00,734.000000,,2013-02-23 18:02:00,
2013-02-23 18:11:00,57.0,41.0,-100.00,WSW,255,3.0,6.0,56,0.00,,,0.00,817.000000,,2013-02-23 18:11:00,
2013-02-23 18:32:00,57.0,41.0,-100.00,WSW,255,3.0,6.0,56,0.00,,,0.00,817.000000,,2013-02-23 18:32:00,
2013-02-23 18:42:00,57.0,41.0,-100.00,WSW,255,3.0,6.0,56,0.00,,,0.00,817.000000,,2013-02-23 18:42:00,
2013-02-23 18:52:00,57.0,41.0,-100.00,WSW,255,3.0,6.0,56,0.00,,,0.00,817.000000,,2013-02-23 18:52:00,
2013-02-23 19:01:00,57.0,41.0,-100.00,WSW,255,3.0,6.0,56,0.00,,,0.00,817.000000,,2013-02-23 19:01:00,
2013-02-23 19:11:00,56.0,39.0,-100.00,WNW,286,4.0,7.0,52,0.00,,,0.00,485.000000,,2013-02-23 19:11:00,
2013-02-23 19:32:00,56.0,39.0,-100.00,WNW,286,4.0,7.0,52,0.00,,,0.00,485.000000,,2013-02-23 19:32:00,
2013-02-23 19:42:00,56.0,39.0,-100.00,WNW,286,4.0,7.0,52,0.00,,,0.00,485.000000,,2013-02-23 19:42:00,
2013-02-23 19:52:00,56.0,39.0,-100.00,WNW,286,4.0,7.0,52,0.00,,,0.00,485.000000,,2013-02-23 19:52:00,
2013-02-23 20:01:00,56.0,39.0,-100.00,WNW,286,4.0,7.0,52,0.00,,,0.00,485.000000,,2013-02-23 20:01:00,
2013-02-23 20:11:00,54.0,42.0,-100.00,WSW,249,4.0,8.0,63,0.00,,,0.00,239.000000,,2013-02-23 20:11:00,
2013-02-23 20:32:00,54.0,42.0,-100.00,WSW,249,4.0,8.0,63,0.00,,,0.00,239.000000,,2013-02-23 20:32:00,
2013-02-23 20:42:00,54.0,42.0,-100.00,WSW,249,4.0,8.0,63,0.00,,,0.00,239.000000,,2013-02-23 20:42:00,
2013-02-23 20:53:00,54.0,42.0,-100.00,WSW,249,4.0,8.0,63,0.00,,,0.00,239.000000,,2013-02-23 20:53:00,
2013-02-23 21:02:00,54.0,42.0,-100.00,WSW,249,4.0,8.0,63,0.00,,,0.00,239.000000,,2013-02-23 21:02:00,
2013-02-23 21:11:00,55.0,41.0,-100.00,SW,222,3.0,6.0,60,0.00,,,0.00,144.000000,,2013-02-23 21:11:00,
2013-02-23 21:42:00,55.0,41.0,-100.00,SW,222,3.0,6.0,60,0.00,,,0.00,144.000000,,2013-02-23 21:42:00,
2013-02-23 21:52:00,55.0,41.0,-100.00,SW,222,3.0,6.0,60,0.00,,,0.00,144.000000,,2013-02-23 21:52:00,
2013-02-23 22:02:00,55.0,41.0,-100.00,SW,222,3.0,6.0,60,0.00,,,0.00,144.000000,,2013-02-23 22:02:00,
2013-02-23 22:11:00,54.0,42.0,-100.00,NW,312,1.0,6.0,64,0.00,,,0.00,62.000000,,2013-02-23 22:11:00,
2013-02-23 22:42:00,54.0,42.0,-100.00,NW,312,1.0,6.0,64,0.00,,,0.00,62.000000,,2013-02-23 22:42:00,
2013-02-23 22:52:00,54.0,42.0,-100.00,NW,312,1.0,6.0,64,0.00,,,0.00,62.000000,,2013-02-23 22:52:00,
2013-02-23 23:01:00,54.0,42.0,-100.00,NW,312,1.0,6.0,64,0.00,,,0.00,62.000000,,2013-02-23 23:01:00,
2013-02-23 23:11:00,52.0,40.0,-100.00,East,93,2.0,7.0,63,0.00,,,0.00,20.000000,,2013-02-23 23:11:00,
2013-02-23 23:32:00,52.0,40.0,-100.00,East,93,2.0,7.0,63,0.00,,,0.00,20.000000,,2013-02-23 23:32:00,
2013-02-23 23:42:00,52.0,40.0,-100.00,East,93,2.0,7.0,63,0.00,,,0.00,20.000000,,2013-02-23 23:42:00,
2013-02-23 23:52:00,52.0,40.0,-100.00,East,93,2.0,7.0,63,0.00,,,0.00,20.000000,,2013-02-23 23:52:00,